Weather past 2 weeks in Port-aux-Francais, Kerguelen Islands

Now
26 °F

Chilly.


Feels Like: 9 °F
Forecast: 31 / 41 °F
Wind: 32 mph from Southwest

Location: Port-Aux-Francais Iles Kerguelen

Current Time: Sep 19, 2014 at 7:09:00 AM

Latest Report: Sep 19, 2014 at 6:00 AM


Visibility: N/A

Pressure: 29.87 "Hg

Humidity: 96%

Dew point: 25 °F

Location of Port-aux-FrancaisLocation

Historic Weather in Port-aux-Francais — Graph

°F

Port-aux-Francais temperature yesterday

Maximum temperature yesterday: 32 °F (at 2:00 PM)
Minimum temperature yesterday: 27 °F (at 11:00 PM)
Average temperature yesterday: 29 °F

Past Weeks' High & Low Weather Summary

 TemperatureHumidityPressure
High48 °F (Sep 6, 8:00 PM)100% (Sep 9, 9:00 AM)30.11 "Hg (Sep 9, 9:00 AM)
Low25 °F (Sep 19, 2:00 AM)52% (Sep 17, 4:00 PM)28.20 "Hg (Sep 10, 3:00 AM)
Average33 °F84%29.21 "Hg
* Reported Sep 4 6:00 AM — Sep 19 6:00 AM, Port-aux-Francais, Weather by CustomWeather, © 2014

Note: Actual official high and low records may vary slightly from our data, if they occured in-between our weather recording intervals... More about our weather records

Advertising

Port-aux-Francais weather history for previous 24 hours

 ConditionsComfort  
Time TempWeatherWind HumidityBarometerVisibility
6:00 AM
Sep 19
26 °FChilly.32 mph96%29.87 "HgN/A
5:00 AM26 °FChilly.30 mph95%29.85 "HgN/A
4:00 AM26 °FChilly.36 mph95%29.82 "HgN/A
3:00 AM25 °FChilly.36 mph92%29.79 "HgN/A
2:00 AM25 °FChilly.35 mph92%29.75 "HgN/A
1:00 AM27 °FChilly.36 mph92%29.73 "HgN/A
12:00 AM26 °FChilly.33 mph94%29.71 "HgN/A
11:00 PM
Sep 18
27 °FChilly.37 mph96%29.67 "HgN/A
10:00 PM28 °FChilly.28 mph96%29.64 "HgN/A
9:00 PM29 °FChilly.25 mph93%29.62 "HgN/A
8:00 PM28 °FChilly.23 mph96%29.61 "HgN/A
7:00 PM29 °FChilly.20 mph93%29.58 "HgN/A
6:00 PM29 °FChilly.21 mph85%29.55 "HgN/A
5:00 PM29 °FChilly.23 mph75%29.50 "HgN/A
4:00 PM30 °FChilly.22 mph77%29.47 "HgN/A
3:00 PM30 °FChilly.20 mph69%29.44 "HgN/A
2:00 PM32 °FOvercast.16 mph63%29.41 "Hg7 mi
1:00 PM29 °FChilly.21 mph80%29.38 "HgN/A
12:00 PM30 °FChilly.18 mph71%29.35 "HgN/A
11:00 AM31 °FOvercast.17 mph80%29.29 "Hg5 mi
10:00 AM28 °FChilly.18 mph95%29.26 "HgN/A
9:00 AM31 °FChilly.16 mph83%29.21 "HgN/A
8:00 AM30 °FOvercast.17 mph93%29.15 "Hg12 mi
7:00 AM28 °FChilly.13 mph96%29.12 "HgN/A
Weather by CustomWeather, © 2014

See weather overviewHow to use our weather pages